PAL125 RPUV-RPLL

Flight info

Callsign PAL125
Flight time 0h 39m
Altitude 24000
Route NGA W9 AKDAP AKDAP1A
Aircraft A320/M-SDE3FGHIRWY/LB1

Departure

Time 2026-04-16 19:57
Airport Virac Airport (RPUV)

Arrival

Time 2026-04-16 20:36
Airport Ninoy Aquino International Airport (RPLL)
Time Latitude Longitude Altitude Speed Heading
2026-04-16 19:27 13.57974 124.21227 107 ft 0 kts 180°
2026-04-16 19:45 13.57978 124.21227 106 ft 2 kts 178°
2026-04-16 19:45 13.57995 124.21227 105 ft 2 kts 181°
2026-04-16 19:45 13.58011 124.21227 106 ft 2 kts 194°
2026-04-16 19:45 13.58025 124.21236 106 ft 2 kts 245°
2026-04-16 19:46 13.58031 124.21249 106 ft 1 kts 244°
2026-04-16 19:46 13.58032 124.21253 105 ft 0 kts 243°
2026-04-16 19:48 13.58030 124.21248 106 ft 4 kts 244°
2026-04-16 19:48 13.58052 124.21208 107 ft 10 kts 324°
2026-04-16 19:48 13.58053 124.21132 108 ft 14 kts 237°
2026-04-16 19:48 13.58011 124.21058 111 ft 10 kts 240°
2026-04-16 19:49 13.57983 124.21006 113 ft 7 kts 241°
2026-04-16 19:49 13.57948 124.20944 114 ft 13 kts 240°
2026-04-16 19:49 13.57893 124.20845 113 ft 17 kts 240°
2026-04-16 19:49 13.57837 124.20744 113 ft 15 kts 240°
2026-04-16 19:50 13.57788 124.20656 113 ft 14 kts 240°
2026-04-16 19:50 13.57742 124.20571 108 ft 14 kts 240°
2026-04-16 19:50 13.57694 124.20485 109 ft 13 kts 240°
2026-04-16 19:50 13.57651 124.20408 110 ft 11 kts 240°
2026-04-16 19:51 13.57615 124.20342 110 ft 10 kts 241°
2026-04-16 19:51 13.57583 124.20283 109 ft 9 kts 241°
2026-04-16 19:51 13.57553 124.20228 108 ft 8 kts 239°
2026-04-16 19:51 13.57526 124.20181 109 ft 7 kts 239°
2026-04-16 19:52 13.57508 124.20148 110 ft 4 kts 241°
2026-04-16 19:52 13.57492 124.20118 111 ft 6 kts 240°
2026-04-16 19:52 13.57470 124.20078 112 ft 7 kts 240°
2026-04-16 19:52 13.57441 124.20027 113 ft 9 kts 239°
2026-04-16 19:53 13.57405 124.19963 114 ft 10 kts 240°
2026-04-16 19:53 13.57373 124.19904 114 ft 9 kts 240°
2026-04-16 19:53 13.57347 124.19857 114 ft 6 kts 240°
2026-04-16 19:53 13.57329 124.19825 115 ft 4 kts 240°
2026-04-16 19:54 13.57320 124.19809 115 ft 1 kts 240°
2026-04-16 19:54 13.57296 124.19780 115 ft 11 kts 221°
2026-04-16 19:54 13.57288 124.19741 114 ft 7 kts 22°
2026-04-16 19:54 13.57309 124.19788 114 ft 0 kts 58°
2026-04-16 19:56 13.57350 124.19862 114 ft 45 kts 60°
2026-04-16 19:56 13.57661 124.20423 109 ft 131 kts 60°
2026-04-16 19:56 13.58192 124.21395 454 ft 162 kts 62°
2026-04-16 19:57 13.58706 124.22420 1358 ft 163 kts 61°
2026-04-16 19:57 13.59332 124.23419 2153 ft 173 kts 43°
2026-04-16 19:57 13.60495 124.23879 2615 ft 196 kts 357°
2026-04-16 19:57 13.61778 124.23269 2939 ft 221 kts 311°
2026-04-16 19:58 13.62431 124.21773 3296 ft 245 kts 279°
2026-04-16 19:58 13.62497 124.19944 3738 ft 265 kts 268°
2026-04-16 19:58 13.62335 124.18036 4541 ft 270 kts 265°
2026-04-16 19:58 13.62130 124.16109 5339 ft 274 kts 265°
2026-04-16 19:59 13.61943 124.14143 6104 ft 279 kts 266°
2026-04-16 19:59 13.61789 124.12148 6851 ft 283 kts 267°
2026-04-16 19:59 13.61666 124.10106 7582 ft 287 kts 268°
2026-04-16 20:00 13.61472 124.05944 9117 ft 295 kts 269°
2026-04-16 20:00 13.61388 124.03821 9876 ft 300 kts 269°
2026-04-16 20:00 13.61304 124.01650 10355 ft 313 kts 269°
2026-04-16 20:00 13.61216 123.99330 10547 ft 336 kts 269°
2026-04-16 20:01 13.61121 123.96889 11031 ft 345 kts 269°
2026-04-16 20:01 13.61023 123.94404 11656 ft 350 kts 269°
2026-04-16 20:01 13.60922 123.91888 12297 ft 355 kts 269°
2026-04-16 20:01 13.60819 123.89343 12946 ft 358 kts 269°
2026-04-16 20:02 13.60714 123.86763 13580 ft 363 kts 269°
2026-04-16 20:02 13.60609 123.84192 14142 ft 366 kts 269°
2026-04-16 20:02 13.60501 123.81536 14718 ft 369 kts 269°
2026-04-16 20:02 13.60394 123.78895 15291 ft 371 kts 269°
2026-04-16 20:03 13.60286 123.76266 15854 ft 373 kts 269°
2026-04-16 20:03 13.60174 123.73590 16415 ft 376 kts 269°
2026-04-16 20:03 13.60060 123.70888 16969 ft 378 kts 269°
2026-04-16 20:03 13.59946 123.68174 17523 ft 381 kts 268°
2026-04-16 20:04 13.59871 123.66370 17887 ft 382 kts 269°
2026-04-16 20:04 13.59759 123.63631 18399 ft 384 kts 269°
2026-04-16 20:04 13.59649 123.60876 18861 ft 387 kts 269°
2026-04-16 20:04 13.59539 123.58103 19330 ft 389 kts 269°
2026-04-16 20:05 13.59427 123.55318 19796 ft 392 kts 268°
2026-04-16 20:05 13.59312 123.52561 20253 ft 394 kts 268°
2026-04-16 20:05 13.59194 123.49767 20720 ft 397 kts 268°
2026-04-16 20:05 13.59071 123.46930 21185 ft 399 kts 268°
2026-04-16 20:06 13.58948 123.44066 21644 ft 402 kts 268°
2026-04-16 20:06 13.58824 123.41189 22100 ft 405 kts 268°
2026-04-16 20:06 13.58701 123.38286 22555 ft 407 kts 268°
2026-04-16 20:06 13.58579 123.35368 23005 ft 410 kts 268°
2026-04-16 20:07 13.58456 123.32426 23446 ft 413 kts 268°
2026-04-16 20:07 13.58383 123.29466 23782 ft 415 kts 273°
2026-04-16 20:07 13.58775 123.26532 23887 ft 414 kts 284°
2026-04-16 20:07 13.59717 123.23796 23921 ft 400 kts 296°
2026-04-16 20:08 13.60940 123.21247 23926 ft 395 kts 296°
2026-04-16 20:08 13.62157 123.18720 23924 ft 394 kts 296°
2026-04-16 20:08 13.63371 123.16189 23925 ft 396 kts 296°
2026-04-16 20:08 13.64612 123.13600 23928 ft 411 kts 296°
2026-04-16 20:09 13.65896 123.10916 23929 ft 425 kts 296°
2026-04-16 20:09 13.67217 123.08147 23928 ft 437 kts 296°
2026-04-16 20:09 13.68571 123.05305 23925 ft 447 kts 296°
2026-04-16 20:09 13.69950 123.02408 23922 ft 456 kts 296°
2026-04-16 20:10 13.71357 122.99452 23924 ft 464 kts 296°
2026-04-16 20:10 13.72787 122.96447 23928 ft 471 kts 296°
2026-04-16 20:10 13.74218 122.93449 23926 ft 476 kts 296°
2026-04-16 20:10 13.75704 122.90335 23928 ft 481 kts 296°
2026-04-16 20:11 13.77163 122.87274 23925 ft 485 kts 296°
2026-04-16 20:11 13.78656 122.84140 23927 ft 489 kts 296°
2026-04-16 20:11 13.80151 122.80991 23926 ft 491 kts 296°
2026-04-16 20:11 13.81647 122.77836 23930 ft 491 kts 296°
2026-04-16 20:12 13.83143 122.74677 23928 ft 492 kts 296°
2026-04-16 20:12 13.84656 122.71486 23925 ft 492 kts 296°
2026-04-16 20:12 13.86157 122.68322 23928 ft 492 kts 296°
2026-04-16 20:12 13.87658 122.65154 23930 ft 492 kts 296°
2026-04-16 20:13 13.89159 122.61991 23926 ft 492 kts 296°
2026-04-16 20:13 13.90662 122.58824 23930 ft 492 kts 296°
2026-04-16 20:13 13.92163 122.55661 23924 ft 492 kts 296°
2026-04-16 20:13 13.93665 122.52494 23925 ft 492 kts 296°
2026-04-16 20:14 13.95167 122.49326 23923 ft 492 kts 296°
2026-04-16 20:14 13.96647 122.46201 23924 ft 492 kts 296°
2026-04-16 20:14 13.98166 122.42993 23926 ft 492 kts 296°
2026-04-16 20:14 13.99644 122.39867 23926 ft 492 kts 296°
2026-04-16 20:15 14.01143 122.36692 23923 ft 492 kts 296°
2026-04-16 20:15 14.02641 122.33517 23924 ft 493 kts 296°
2026-04-16 20:15 14.04137 122.30347 23926 ft 493 kts 296°
2026-04-16 20:15 14.05635 122.27171 23927 ft 492 kts 296°
2026-04-16 20:16 14.07133 122.23995 23927 ft 492 kts 296°
2026-04-16 20:16 14.08630 122.20825 23928 ft 492 kts 296°
2026-04-16 20:16 14.10129 122.17651 23927 ft 492 kts 296°
2026-04-16 20:16 14.11624 122.14488 23927 ft 492 kts 296°
2026-04-16 20:17 14.13123 122.11314 23929 ft 492 kts 296°
2026-04-16 20:17 14.14620 122.08144 23929 ft 492 kts 296°
2026-04-16 20:17 14.16112 122.04982 23922 ft 482 kts 296°
2026-04-16 20:17 14.17527 122.01981 23915 ft 458 kts 296°
2026-04-16 20:18 14.18892 121.99082 23711 ft 442 kts 296°
2026-04-16 20:18 14.20209 121.96276 23495 ft 429 kts 296°
2026-04-16 20:18 14.21492 121.93546 23234 ft 417 kts 296°
2026-04-16 20:18 14.22542 121.90813 22980 ft 406 kts 289°
2026-04-16 20:19 14.23413 121.88081 22722 ft 397 kts 289°
2026-04-16 20:19 14.24269 121.85409 22469 ft 387 kts 289°
2026-04-16 20:19 14.25107 121.82804 22232 ft 378 kts 289°
2026-04-16 20:19 14.25934 121.80235 21716 ft 378 kts 289°
2026-04-16 20:20 14.26753 121.77684 21364 ft 372 kts 289°
2026-04-16 20:20 14.27561 121.75163 20978 ft 369 kts 289°
2026-04-16 20:20 14.28353 121.72689 20542 ft 367 kts 289°
2026-04-16 20:20 14.29153 121.70190 20100 ft 366 kts 289°
2026-04-16 20:21 14.29949 121.67704 19653 ft 365 kts 289°
2026-04-16 20:21 14.30742 121.65223 19205 ft 364 kts 289°
2026-04-16 20:21 14.31529 121.62752 18771 ft 363 kts 290°
2026-04-16 20:21 14.32319 121.60273 18299 ft 363 kts 290°
2026-04-16 20:22 14.33104 121.57808 17874 ft 361 kts 290°
2026-04-16 20:22 14.33886 121.55360 17419 ft 359 kts 290°
2026-04-16 20:22 14.34667 121.52919 16982 ft 358 kts 290°
2026-04-16 20:22 14.35444 121.50490 16556 ft 356 kts 290°
2026-04-16 20:23 14.36215 121.48075 16141 ft 354 kts 290°
2026-04-16 20:23 14.36991 121.45641 15725 ft 352 kts 290°
2026-04-16 20:23 14.37743 121.43284 15322 ft 351 kts 290°
2026-04-16 20:23 14.38503 121.40894 14943 ft 348 kts 290°
2026-04-16 20:24 14.39247 121.38556 14566 ft 346 kts 290°
2026-04-16 20:24 14.40000 121.36203 14140 ft 346 kts 290°
2026-04-16 20:24 14.40751 121.33852 13746 ft 345 kts 290°
2026-04-16 20:24 14.41497 121.31510 13312 ft 343 kts 290°
2026-04-16 20:25 14.42131 121.29141 12881 ft 343 kts 280°
2026-04-16 20:25 14.42202 121.26687 12439 ft 343 kts 264°
2026-04-16 20:25 14.41798 121.24299 12039 ft 341 kts 260°
2026-04-16 20:25 14.41364 121.21904 11625 ft 339 kts 260°
2026-04-16 20:26 14.40940 121.19520 11213 ft 337 kts 260°
2026-04-16 20:26 14.40523 121.17155 10825 ft 335 kts 259°
2026-04-16 20:26 14.40108 121.14796 10503 ft 330 kts 259°
2026-04-16 20:26 14.39704 121.12501 10328 ft 321 kts 259°
2026-04-16 20:27 14.39310 121.10261 10116 ft 313 kts 259°
2026-04-16 20:27 14.38921 121.08067 9814 ft 310 kts 259°
2026-04-16 20:27 14.38532 121.05877 9431 ft 308 kts 259°
2026-04-16 20:27 14.38143 121.03700 9007 ft 308 kts 259°
2026-04-16 20:28 14.37762 121.01570 8652 ft 305 kts 259°
2026-04-16 20:28 14.37374 120.99405 8313 ft 302 kts 259°
2026-04-16 20:28 14.36996 120.97292 7813 ft 297 kts 259°
2026-04-16 20:28 14.36622 120.95199 7076 ft 297 kts 259°
2026-04-16 20:29 14.36245 120.93098 6340 ft 298 kts 259°
2026-04-16 20:29 14.35868 120.90999 5558 ft 298 kts 259°
2026-04-16 20:29 14.35480 120.88898 4774 ft 297 kts 259°
2026-04-16 20:29 14.35096 120.86806 3994 ft 296 kts 259°
2026-04-16 20:30 14.34721 120.84759 3304 ft 291 kts 261°
2026-04-16 20:30 14.34765 120.82744 3074 ft 267 kts 287°
2026-04-16 20:30 14.35640 120.81187 2994 ft 240 kts 318°
2026-04-16 20:30 14.37042 120.80422 3007 ft 227 kts 352°
2026-04-16 20:31 14.38592 120.80537 3012 ft 224 kts 20°
2026-04-16 20:31 14.39854 120.81344 3004 ft 208 kts 47°
2026-04-16 20:31 14.40620 120.82561 3034 ft 195 kts 63°
2026-04-16 20:31 14.41203 120.83735 3020 ft 178 kts 63°
2026-04-16 20:32 14.41754 120.84833 3021 ft 173 kts 63°
2026-04-16 20:32 14.42318 120.85956 3008 ft 178 kts 63°
2026-04-16 20:32 14.42889 120.87094 3014 ft 180 kts 63°
2026-04-16 20:32 14.43423 120.88266 2866 ft 183 kts 66°
2026-04-16 20:33 14.43982 120.89483 2414 ft 192 kts 63°
2026-04-16 20:33 14.44616 120.90693 2077 ft 190 kts 61°
2026-04-16 20:33 14.45246 120.91844 1811 ft 178 kts 60°
2026-04-16 20:33 14.45845 120.92924 1596 ft 166 kts 60°
2026-04-16 20:34 14.46396 120.93917 1373 ft 152 kts 60°
2026-04-16 20:34 14.46907 120.94836 1181 ft 145 kts 60°
2026-04-16 20:34 14.47407 120.95734 1003 ft 143 kts 60°
2026-04-16 20:34 14.47900 120.96621 819 ft 143 kts 61°
2026-04-16 20:35 14.48394 120.97511 636 ft 143 kts 62°
2026-04-16 20:35 14.48875 120.98414 473 ft 144 kts 63°
2026-04-16 20:35 14.49379 120.99302 316 ft 144 kts 59°
2026-04-16 20:35 14.49888 121.00189 109 ft 143 kts 62°
2026-04-16 20:36 14.50352 121.01026 63 ft 118 kts 60°
2026-04-16 20:36 14.50675 121.01609 68 ft 69 kts 60°
2026-04-16 20:36 14.50841 121.01906 63 ft 38 kts 60°
2026-04-16 20:36 14.50949 121.01999 65 ft 14 kts 335°
2026-04-16 20:37 14.51017 121.01937 67 ft 13 kts 314°
2026-04-16 20:37 14.51076 121.01878 69 ft 11 kts 315°
2026-04-16 20:37 14.51129 121.01823 68 ft 12 kts 315°
2026-04-16 20:37 14.51204 121.01745 59 ft 19 kts 315°
2026-04-16 20:38 14.51299 121.01646 66 ft 20 kts 315°
2026-04-16 20:38 14.51403 121.01539 69 ft 22 kts 313°
2026-04-16 20:38 14.51515 121.01424 66 ft 24 kts 315°
2026-04-16 20:38 14.51616 121.01318 69 ft 11 kts 315°
2026-04-16 20:39 14.51678 121.01323 69 ft 9 kts 27°
2026-04-16 20:39 14.51730 121.01312 69 ft 7 kts 337°
2026-04-16 20:39 14.51768 121.01329 69 ft 6 kts 39°
2026-04-16 20:39 14.51793 121.01355 64 ft 5 kts 45°
2026-04-16 20:40 14.51807 121.01369 62 ft 0 kts 44°